Flag for Sao Tome and Principe Weather past 2 weeks in São Tomé, Sao Tome and Principe

Now
77 °F

Passing clouds.


Feels Like: 78 °F
Forecast: 78 / 82 °F
Wind: 2 mph from Southwest

Location: S. Tome

Current Time: Dec 20, 2014 at 1:05:17 AM

Latest Report: Dec 20, 2014 at 12:00 AM


Visibility: N/A

Pressure: 29.92 "Hg

Humidity: 89%

Dew point: 73 °F

Location of São ToméLocation

Historic Weather in São Tomé — Graph

°F

São Tomé temperature yesterday

Maximum temperature yesterday: 84 °F (at 12:00 PM)
Minimum temperature yesterday: 75 °F (at 5:00 AM)
Average temperature yesterday: 80 °F

Past Weeks' High & Low Weather Summary

 TemperatureHumidityPressure
High86 °F (Dec 7, 2:00 PM)100% (Dec 7, 6:00 AM)30.01 "Hg (Dec 7, 6:00 AM)
Low72 °F (Dec 17, 6:00 AM)70% (Dec 5, 10:00 AM)29.77 "Hg (Dec 12, 4:00 PM)
Average79 °F86%29.88 "Hg
* Reported Dec 4 10:00 PM — Dec 19 10:00 PM, São Tomé, Weather by CustomWeather, © 2014

Note: Actual official high and low records may vary slightly from our data, if they occured in-between our weather recording intervals... More about our weather records

Advertising

São Tomé weather history for previous 24 hours

 ConditionsComfort  
Time TempWeatherWind HumidityBarometerVisibility
10:00 PM
Dec 19
79 °FPassing clouds.7 mph89%29.95 "HgN/A
9:00 PM81 °FPassing clouds.14 mph89%29.92 "HgN/A
7:00 PM79 °FPassing clouds.5 mph89%29.89 "HgN/A
6:00 PM81 °FPartly cloudy.9 mph84%29.89 "HgN/A
5:00 PM81 °FBroken clouds.12 mph84%29.86 "HgN/A
4:00 PM82 °FPartly sunny.12 mph79%29.86 "HgN/A
3:00 PM84 °FPartly sunny.12 mph79%29.83 "HgN/A
2:00 PM84 °FPartly sunny.12 mph74%29.86 "HgN/A
1:00 PM84 °FPartly sunny.16 mph79%29.89 "HgN/A
12:00 PM84 °FThunderstorms. Broken clouds.14 mph84%29.92 "HgN/A
11:00 AM82 °FPartly sunny.5 mph84%29.95 "HgN/A
10:00 AM82 °FPartly sunny.14 mph79%29.95 "HgN/A
9:00 AM82 °FPartly sunny.9 mph79%29.95 "HgN/A
8:00 AM77 °FBroken clouds.2 mph89%29.95 "HgN/A
7:00 AM75 °FScattered clouds.2 mph94%29.92 "HgN/A
5:00 AM75 °FPassing clouds.5 mph89%29.89 "HgN/A
4:00 AM79 °FPassing clouds.2 mph79%29.86 "HgN/A
Weather by CustomWeather, © 2014

See weather overviewHow to use our weather pages